| time (UTC) | temp F | wind direction | speed MPH | gust MPH | rain 1hr in | rain 24hr in | rain mn in | humidity % | barometer mb |
| 20260508224520 | 58 | 0.0 | 0.0 | 0.00 | 0.43 | 0.00 | 97 | 1017.6 | |
| 20260508223520 | 57 | 0.0 | 0.0 | 0.00 | 0.43 | 0.00 | 97 | 1017.6 | |
| 20260508222520 | 57 | 0.0 | 0.0 | 0.00 | 0.43 | 0.00 | 97 | 1017.5 | |
| 20260508221518 | 57 | 0.0 | 0.0 | 0.00 | 0.43 | 0.00 | 97 | 1017.6 | |
| 20260508220520 | 57 | 0.0 | 0.0 | 0.00 | 0.43 | 0.00 | 97 | 1017.6 | |
| 20260508215517 | 57 | 0.0 | 0.0 | 0.00 | 0.43 | 0.00 | 97 | 1017.7 | |
| 20260508214537 | 58 | 0.0 | 0.0 | 0.00 | 0.43 | 0.00 | 97 | 1017.6 | |
| 20260508213537 | 58 | 0.0 | 0.0 | 0.00 | 0.43 | 0.00 | 97 | 1017.5 | |
| 20260508212537 | 58 | 0.0 | 0.0 | 0.00 | 0.43 | 0.00 | 97 | 1017.4 | |
| 20260508211533 | 58 | 0.0 | 0.0 | 0.00 | 0.43 | 0.00 | 97 | 1017.4 | |
| 20260508210525 | 59 | 0.0 | 0.0 | 0.00 | 0.43 | 0.00 | 97 | 1017.4 | |
| 20260508205525 | 59 | 0.0 | 0.0 | 0.00 | 0.43 | 0.43 | 97 | 1017.3 | |
| 20260508204525 | 59 | 6 | 1.0 | 1.0 | 0.00 | 0.43 | 0.43 | 97 | 1017.2 |
| 20260508203526 | 59 | 0.0 | 0.0 | 0.00 | 0.43 | 0.43 | 97 | 1017.3 | |
| 20260508202525 | 59 | 0.0 | 0.0 | 0.00 | 0.43 | 0.43 | 97 | 1017.4 | |
| 20260508201525 | 59 | 0.0 | 0.0 | 0.00 | 0.43 | 0.43 | 97 | 1017.5 | |
| 20260508200525 | 59 | 0.0 | 0.0 | 0.00 | 0.43 | 0.43 | 97 | 1017.5 | |
| 20260508195524 | 59 | 0.0 | 0.0 | 0.00 | 0.43 | 0.43 | 96 | 1017.5 | |
| 20260508194545 | 59 | 0.0 | 0.0 | 0.00 | 0.43 | 0.43 | 96 | 1017.6 | |
| 20260508193526 | 59 | 0.0 | 0.0 | 0.00 | 0.43 | 0.43 | 96 | 1017.5 | |
| 20260508192524 | 59 | 0.0 | 0.0 | 0.00 | 0.43 | 0.43 | 96 | 1017.4 | |
| 20260508191525 | 59 | 348 | 0.0 | 1.0 | 0.00 | 0.43 | 0.43 | 95 | 1017.4 |
| 20260508190525 | 59 | 0.0 | 0.0 | 0.00 | 0.43 | 0.43 | 95 | 1017.2 | |
| 20260508185526 | 60 | 0.0 | 0.0 | 0.00 | 0.43 | 0.43 | 95 | 1017.1 | |
| 20260508184525 | 60 | 338 | 0.0 | 1.0 | 0.00 | 0.43 | 0.43 | 95 | 1017.0 |
| 20260508183525 | 60 | 0.0 | 0.0 | 0.00 | 0.43 | 0.43 | 94 | 1016.8 | |
| 20260508182524 | 60 | 0.0 | 0.0 | 0.00 | 0.43 | 0.43 | 94 | 1016.8 | |
| 20260508181546 | 60 | 0.0 | 0.0 | 0.00 | 0.43 | 0.43 | 94 | 1016.6 | |
| 20260508180526 | 60 | 0.0 | 0.0 | 0.00 | 0.43 | 0.43 | 93 | 1016.5 | |
| 20260508175524 | 61 | 77 | 0.0 | 1.0 | 0.00 | 0.43 | 0.43 | 93 | 1016.4 |
| 20260508174527 | 61 | 132 | 0.0 | 1.0 | 0.00 | 0.43 | 0.43 | 93 | 1016.3 |
| 20260508173546 | 61 | 172 | 0.0 | 1.0 | 0.00 | 0.43 | 0.43 | 92 | 1016.3 |
| 20260508172526 | 61 | 342 | 1.0 | 1.0 | 0.00 | 0.43 | 0.43 | 91 | 1016.2 |
| 20260508171524 | 61 | 0.0 | 0.0 | 0.00 | 0.43 | 0.43 | 90 | 1016.0 | |
| 20260508170527 | 61 | 0.0 | 0.0 | 0.00 | 0.43 | 0.43 | 90 | 1016.0 | |
| 20260508165605 | 62 | 0.0 | 0.0 | 0.00 | 0.43 | 0.43 | 90 | 1015.9 | |
| 20260508164526 | 62 | 148 | 0.0 | 1.0 | 0.00 | 0.43 | 0.43 | 90 | 1016.1 |
| 20260508163526 | 62 | 176 | 1.0 | 1.0 | 0.00 | 0.43 | 0.43 | 89 | 1016.2 |
| 20260508162526 | 63 | 163 | 1.0 | 1.0 | 0.00 | 0.43 | 0.43 | 88 | 1016.1 |
| 20260508161545 | 63 | 177 | 1.0 | 1.0 | 0.00 | 0.43 | 0.43 | 88 | 1016.0 |
| 20260508160525 | 63 | 131 | 0.0 | 1.0 | 0.00 | 0.43 | 0.43 | 86 | 1015.8 |
| 20260508155525 | 63 | 118 | 0.0 | 1.0 | 0.00 | 0.43 | 0.43 | 85 | 1015.8 |
| 20260508154525 | 64 | 0.0 | 0.0 | 0.00 | 0.43 | 0.43 | 85 | 1015.6 | |
| 20260508153525 | 63 | 93 | 0.0 | 1.0 | 0.00 | 0.43 | 0.43 | 87 | 1015.6 |
| 20260508152525 | 62 | 51 | 0.0 | 1.0 | 0.00 | 0.43 | 0.43 | 88 | 1015.5 |
| 20260508151525 | 62 | 87 | 0.0 | 1.0 | 0.00 | 0.43 | 0.43 | 90 | 1015.7 |
| 20260508150525 | 62 | 68 | 0.0 | 1.0 | 0.00 | 0.43 | 0.43 | 91 | 1015.8 |
| 20260508145525 | 62 | 80 | 1.0 | 2.0 | 0.01 | 0.43 | 0.43 | 92 | 1015.8 |
| 20260508144525 | 61 | 34 | 1.0 | 2.0 | 0.02 | 0.43 | 0.43 | 91 | 1015.8 |
| 20260508143525 | 61 | 29 | 1.0 | 1.0 | 0.08 | 0.43 | 0.43 | 91 | 1015.8 |
| 20260508142525 | 60 | 30 | 1.0 | 2.0 | 0.21 | 0.43 | 0.43 | 90 | 1015.8 |
| 20260508141525 | 60 | 42 | 1.0 | 2.0 | 0.43 | 0.43 | 0.43 | 90 | 1015.9 |
| 20260508140525 | 60 | 29 | 1.0 | 2.0 | 0.43 | 0.43 | 0.43 | 92 | 1015.9 |
| 20260508135525 | 60 | 14 | 1.0 | 1.0 | 0.42 | 0.42 | 0.42 | 93 | 1015.9 |
| 20260508134545 | 60 | 340 | 2.0 | 6.0 | 0.41 | 0.41 | 0.41 | 93 | 1015.9 |
| 20260508133525 | 60 | 325 | 4.0 | 9.0 | 0.35 | 0.35 | 0.35 | 93 | 1016.4 |
| 20260508132525 | 60 | 312 | 11.0 | 19.0 | 0.22 | 0.22 | 0.22 | 90 | 1016.3 |
| 20260508131525 | 61 | 290 | 16.0 | 22.0 | 0.00 | 0.00 | 0.00 | 85 | 1015.8 |
| 20260508130546 | 66 | 284 | 18.0 | 32.0 | 0.00 | 0.00 | 0.00 | 77 | 1015.4 |
| 20260508125525 | 72 | 0.0 | 0.0 | 0.00 | 0.00 | 0.00 | 63 | 1014.4 | |
| 20260508124526 | 73 | 0.0 | 0.0 | 0.00 | 0.00 | 0.00 | 63 | 1014.2 | |
| 20260508123525 | 74 | 128 | 0.0 | 2.0 | 0.00 | 0.00 | 0.00 | 60 | 1014.2 |
| 20260508122524 | 75 | 105 | 1.0 | 3.0 | 0.00 | 0.00 | 0.00 | 59 | 1014.3 |
| 20260508121523 | 75 | 114 | 1.0 | 4.0 | 0.00 | 0.00 | 0.00 | 60 | 1014.3 |
| 20260508120543 | 74 | 105 | 2.0 | 5.0 | 0.00 | 0.00 | 0.00 | 60 | 1014.5 |
| 20260508115523 | 75 | 127 | 2.0 | 7.0 | 0.00 | 0.00 | 0.00 | 60 | 1014.5 |
| 20260508114521 | 75 | 131 | 1.0 | 2.0 | 0.00 | 0.00 | 0.00 | 59 | 1014.5 |
| 20260508113520 | 74 | 95 | 1.0 | 5.0 | 0.00 | 0.00 | 0.00 | 61 | 1014.6 |
| 20260508112519 | 72 | 108 | 1.0 | 3.0 | 0.00 | 0.00 | 0.00 | 63 | 1014.7 |
| 20260508111538 | 72 | 101 | 0.0 | 1.0 | 0.00 | 0.00 | 0.00 | 62 | 1014.7 |
| 20260508110518 | 73 | 156 | 0.0 | 5.0 | 0.00 | 0.00 | 0.00 | 62 | 1014.7 |
| 20260508105517 | 72 | 105 | 2.0 | 6.0 | 0.00 | 0.00 | 0.00 | 63 | 1014.9 |
| 20260508104517 | 72 | 136 | 0.0 | 2.0 | 0.00 | 0.00 | 0.00 | 64 | 1014.8 |
| 20260508103519 | 72 | 128 | 1.0 | 6.0 | 0.00 | 0.00 | 0.00 | 63 | 1014.9 |
| 20260508102517 | 71 | 155 | 1.0 | 4.0 | 0.00 | 0.00 | 0.00 | 64 | 1015.0 |
| 20260508101517 | 71 | 123 | 2.0 | 7.0 | 0.00 | 0.00 | 0.00 | 64 | 1015.1 |
| 20260508100517 | 72 | 137 | 1.0 | 3.0 | 0.00 | 0.00 | 0.00 | 64 | 1015.3 |
| 20260508095517 | 71 | 92 | 1.0 | 5.0 | 0.00 | 0.00 | 0.00 | 66 | 1015.4 |
| 20260508094546 | 70 | 133 | 1.0 | 4.0 | 0.00 | 0.00 | 0.00 | 67 | 1015.6 |
| 20260508093525 | 69 | 157 | 2.0 | 3.0 | 0.00 | 0.00 | 0.00 | 68 | 1015.7 |
| 20260508092526 | 69 | 132 | 1.0 | 4.0 | 0.00 | 0.00 | 0.00 | 69 | 1015.7 |
| 20260508091526 | 69 | 150 | 2.0 | 9.0 | 0.00 | 0.00 | 0.00 | 68 | 1015.8 |
| 20260508090525 | 67 | 106 | 0.0 | 2.0 | 0.00 | 0.00 | 0.00 | 71 | 1015.9 |
| 20260508085526 | 67 | 113 | 1.0 | 6.0 | 0.00 | 0.00 | 0.00 | 71 | 1015.9 |
| 20260508084525 | 66 | 113 | 2.0 | 4.0 | 0.00 | 0.00 | 0.00 | 72 | 1015.9 |
| 20260508083526 | 66 | 124 | 2.0 | 3.0 | 0.00 | 0.00 | 0.00 | 73 | 1015.9 |
| 20260508082525 | 64 | 171 | 0.0 | 2.0 | 0.00 | 0.00 | 0.00 | 76 | 1016.0 |
| 20260508081526 | 63 | 162 | 1.0 | 3.0 | 0.00 | 0.00 | 0.00 | 77 | 1016.1 |
| 20260508080525 | 62 | 132 | 1.0 | 3.0 | 0.00 | 0.00 | 0.00 | 80 | 1015.9 |
| 20260508075526 | 60 | 116 | 1.0 | 3.0 | 0.00 | 0.00 | 0.00 | 82 | 1016.1 |
| 20260508074546 | 59 | 120 | 0.0 | 2.0 | 0.00 | 0.00 | 0.00 | 82 | 1016.1 |
| 20260508073525 | 59 | 138 | 1.0 | 2.0 | 0.00 | 0.00 | 0.00 | 83 | 1016.2 |
| 20260508072526 | 59 | 133 | 1.0 | 2.0 | 0.00 | 0.00 | 0.00 | 82 | 1016.2 |
| 20260508071517 | 59 | 121 | 1.0 | 2.0 | 0.00 | 0.00 | 0.00 | 83 | 1016.2 |
| 20260508070516 | 58 | 124 | 2.0 | 7.0 | 0.00 | 0.00 | 0.00 | 84 | 1016.1 |
| 20260508065516 | 57 | 118 | 2.0 | 3.0 | 0.00 | 0.00 | 0.00 | 84 | 1016.2 |
| 20260508064516 | 57 | 110 | 1.0 | 2.0 | 0.00 | 0.00 | 0.00 | 85 | 1016.1 |
| 20260508063536 | 56 | 134 | 1.0 | 2.0 | 0.00 | 0.00 | 0.00 | 87 | 1016.2 |
| 20260508062536 | 55 | 119 | 1.0 | 2.0 | 0.00 | 0.00 | 0.00 | 88 | 1016.1 |
| 20260508061536 | 55 | 119 | 1.0 | 2.0 | 0.00 | 0.00 | 0.00 | 87 | 1016.0 |
| 20260508060516 | 55 | 125 | 1.0 | 2.0 | 0.00 | 0.00 | 0.00 | 87 | 1016.0 |
| 20260508055515 | 54 | 121 | 1.0 | 2.0 | 0.00 | 0.00 | 0.00 | 88 | 1015.9 |
| 20260508054516 | 54 | 143 | 1.0 | 2.0 | 0.00 | 0.00 | 0.00 | 90 | 1015.9 |
| 20260508053536 | 53 | 120 | 1.0 | 2.0 | 0.00 | 0.00 | 0.00 | 90 | 1015.8 |
| 20260508052535 | 53 | 117 | 1.0 | 2.0 | 0.00 | 0.00 | 0.00 | 91 | 1015.8 |
| 20260508051557 | 52 | 117 | 1.0 | 2.0 | 0.00 | 0.00 | 0.00 | 90 | 1015.8 |
| 20260508050516 | 53 | 114 | 2.0 | 2.0 | 0.00 | 0.00 | 0.00 | 89 | 1015.9 |
| 20260508045536 | 52 | 127 | 1.0 | 2.0 | 0.00 | 0.00 | 0.00 | 89 | 1015.9 |
| 20260508044516 | 52 | 122 | 1.0 | 2.0 | 0.00 | 0.00 | 0.00 | 90 | 1016.0 |
| 20260508043536 | 51 | 117 | 1.0 | 2.0 | 0.00 | 0.00 | 0.00 | 90 | 1016.1 |
| 20260508042517 | 51 | 120 | 1.0 | 2.0 | 0.00 | 0.00 | 0.00 | 91 | 1016.0 |
| 20260508041535 | 51 | 113 | 2.0 | 2.0 | 0.00 | 0.00 | 0.00 | 91 | 1015.9 |
| 20260508040516 | 51 | 124 | 2.0 | 2.0 | 0.00 | 0.00 | 0.00 | 91 | 1015.9 |
| 20260508035516 | 51 | 107 | 2.0 | 2.0 | 0.00 | 0.00 | 0.00 | 91 | 1015.8 |
| 20260508034517 | 50 | 108 | 1.0 | 2.0 | 0.00 | 0.00 | 0.00 | 91 | 1015.8 |
| 20260508033536 | 50 | 115 | 2.0 | 2.0 | 0.00 | 0.00 | 0.00 | 91 | 1015.7 |
| 20260508032536 | 50 | 107 | 1.0 | 2.0 | 0.00 | 0.00 | 0.00 | 91 | 1015.8 |
| 20260508031516 | 50 | 0.0 | 0.0 | 0.00 | 0.00 | 0.00 | 91 | 1015.7 | |
| 20260508030538 | 50 | 0.0 | 0.0 | 0.00 | 0.00 | 0.00 | 91 | 1015.5 | |
| 20260508025517 | 50 | 117 | 1.0 | 1.0 | 0.00 | 0.00 | 0.00 | 91 | 1015.4 |
| 20260508024517 | 50 | 117 | 1.0 | 2.0 | 0.00 | 0.00 | 0.00 | 90 | 1015.3 |
| 20260508023515 | 50 | 108 | 1.0 | 2.0 | 0.00 | 0.00 | 0.00 | 90 | 1015.3 |
| 20260508022516 | 51 | 120 | 1.0 | 2.0 | 0.00 | 0.00 | 0.00 | 90 | 1015.2 |
| 20260508021517 | 51 | 113 | 2.0 | 2.0 | 0.00 | 0.00 | 0.00 | 89 | 1015.2 |
| 20260508020521 | 51 | 113 | 1.0 | 2.0 | 0.00 | 0.00 | 0.00 | 89 | 1015.2 |
| 20260508015517 | 51 | 131 | 1.0 | 2.0 | 0.00 | 0.00 | 0.00 | 88 | 1014.9 |
| 20260508014536 | 51 | 114 | 1.0 | 2.0 | 0.00 | 0.00 | 0.00 | 88 | 1015.1 |
| 20260508013517 | 51 | 139 | 1.0 | 2.0 | 0.00 | 0.00 | 0.00 | 87 | 1015.1 |
| 20260508012517 | 52 | 124 | 1.0 | 2.0 | 0.00 | 0.00 | 0.00 | 87 | 1015.0 |
| 20260508011517 | 52 | 108 | 1.0 | 2.0 | 0.00 | 0.00 | 0.00 | 87 | 1015.1 |
| 20260508010516 | 52 | 119 | 1.0 | 2.0 | 0.00 | 0.00 | 0.00 | 87 | 1015.0 |
| 20260508005517 | 52 | 121 | 1.0 | 2.0 | 0.00 | 0.00 | 0.00 | 86 | 1015.0 |
| 20260508004556 | 52 | 119 | 1.0 | 2.0 | 0.00 | 0.00 | 0.00 | 86 | 1014.9 |
| 20260508003537 | 53 | 127 | 1.0 | 2.0 | 0.00 | 0.00 | 0.00 | 85 | 1014.9 |
| 20260508002517 | 53 | 110 | 2.0 | 2.0 | 0.00 | 0.00 | 0.00 | 85 | 1014.9 |
| 20260508001536 | 53 | 107 | 1.0 | 2.0 | 0.00 | 0.00 | 0.00 | 85 | 1015.0 |
| 20260508000516 | 53 | 110 | 2.0 | 4.0 | 0.00 | 0.00 | 0.00 | 84 | 1014.9 |
| 20260507235517 | 53 | 112 | 2.0 | 4.0 | 0.00 | 0.00 | 0.00 | 84 | 1014.9 |
| 20260507234518 | 54 | 112 | 2.0 | 2.0 | 0.00 | 0.00 | 0.00 | 84 | 1014.9 |
| 20260507233516 | 54 | 115 | 2.0 | 2.0 | 0.00 | 0.00 | 0.00 | 83 | 1014.9 |
| 20260507232537 | 54 | 125 | 2.0 | 2.0 | 0.00 | 0.00 | 0.00 | 83 | 1014.9 |
| 20260507231537 | 54 | 126 | 2.0 | 3.0 | 0.00 | 0.00 | 0.00 | 83 | 1015.0 |
| 20260507230540 | 54 | 118 | 2.0 | 2.0 | 0.00 | 0.00 | 0.00 | 82 | 1015.0 |
| 20260507225517 | 54 | 123 | 2.0 | 3.0 | 0.00 | 0.00 | 0.00 | 82 | 1015.0 |